Location: Casilda
(33.0440°S, 61.1680°W)
Time: 04:25:14
(UTC-03:00)

ISS - Pass Details

Date: 08 August 2020
Orbit: 418 x 420 km, 51.6° (Epoch: 11 August)

Event Time Altitude Azimuth Distance (km) Brightness Sun altitude
Exits shadow 06:09:50 10° 173° (S) 1,549 -0.9 -21.1°
Reaches altitude 10° 06:10:00 10° 170° (S) 1,525 -0.9 -21.1°
Maximum altitude 06:11:04 11° 152° (SSE) 1,457 -0.8 -20.8°
Drops below altitude 10° 06:12:08 10° 134° (SE) 1,521 -0.4 -20.6°
Sets 06:15:36 0° 96° (E) 2,379 1.5 -19.9°
